Regional Weather Roundup
Issued by NWS

Home | Current Version | Previous Version | Graphics & Text | Print | Product List | Glossary On
Versions: 1 2 3 4 5 6 7 8 9 10 11 12 13 14 15 16 17 18 19 20 21 22 23 24 25 26 27 28 29 30 31 32 33 34 35 36 37 38 39 40 41 42 43 44 45 46 47 48 49 50
000
ASUS43 KFSD 080910
RWRSD

WEATHER ROUNDUP FOR SOUTH DAKOTA
NATIONAL WEATHER SERVICE SIOUX FALLS SD
300 AM CST THU DEC 08 2016

NOTE: "FAIR" INDICATES FEW OR NO CLOUDS BELOW 12,000 FEET WITH NO
SIGNIFICANT WEATHER AND/OR OBSTRUCTIONS TO VISIBILITY.


SDZ001>005-009-010-012>017-081000-
NORTHWEST AND NORTH CENTRAL SOUTH DAKOTA

CITY           SKY/WX    TMP DP  RH WIND       PRES   REMARKS
BUFFALO          N/A     -1  -7  75 NW15      30.44R WCI -21
FAITH            N/A     -1  -5  82 NW17      30.52R WCI -22
MOBRIDGE       CLEAR      6  -2  69 NW20      30.50R WCI -14
$$

SDZ012>016-024>037-041>051-057-063-072>074-081000-
SOUTHWEST AND SOUTH CENTRAL SOUTH DAKOTA

CITY           SKY/WX    TMP DP  RH WIND       PRES   REMARKS
RAPID CTY ARPT CLEAR      0  -7  72 N12       30.51R WCI -17
PIERRE         CLOUDY     7   0  73 NW24G33   30.54R WCI -14
CUSTER         CLEAR     -1 -13  56 NW6       30.27R WCI -13
ELLSWORTH AFB  CLEAR      2  -6  67 NW18      30.49R WCI -18
PHILIP         CLOUDY     3  -4  72 NW15      30.58R WCI -16
PINE RIDGE     CLOUDY   -13 -18  78 CALM      30.52R
SPEARFISH      FAIR      -2  -9  71 W10       30.47S WCI -19
WINNER         CLOUDY     7  -2  66 NW17      30.54R WCI -12
$$

SDZ004>011-016>023-039-040-081000-
NORTHEAST SOUTH DAKOTA

CITY           SKY/WX    TMP DP  RH WIND       PRES   REMARKS
ABERDEEN       LGT SNOW  10   3  73 NW25      30.46R WCI -11
WATERTOWN      CLOUDY     9   4  80 NW22G30   30.34R WCI -11
BROOKINGS      FLURRIES   7   2  80 NW16G24   30.36R WCI -11
SISSETON         N/A     13   8  81 NW26G35   30.34R WCI  -7
$$

SDZ017-020-022-023-036>040-048>070-081000-
SOUTHEAST SOUTH DAKOTA

CITY           SKY/WX    TMP DP  RH WIND       PRES   REMARKS
SIOUX FALLS    CLOUDY     8   3  80 NW17G29   30.40R WCI -10
HURON          MIX PCPN   7   2  80 NW18G30   30.48R WCI -12
CHAMBERLAIN    CLOUDY     9   4  80 NW10      30.54R WCI  -6
MITCHELL       MOCLDY     8   1  73 NW20      30.51R WCI -11
YANKTON        CLEAR    N/A N/A N/A NW23G36   30.48R
$$

ABBREVIATIONS USED IN REMARKS
   TC - TEMPERATURE IN CELSIUS
  WCI - WIND CHILL INDEX
   HX - HEAT INDEX
  VSB - VISIBILITY





USA.gov is the U.S. government's official web portal to all federal, state and local government web resources and services.